Regional Weather Roundup
Issued by NWS

Home | Current Version | Previous Version | Graphics & Text | Print | Product List | Glossary Off
Versions: 1 2 3 4 5 6 7 8 9 10 11 12 13 14 15 16 17 18 19 20 21 22 23 24 25 26 27 28 29 30 31 32 33 34 35 36 37 38 39 40 41 42 43 44 45 46 47 48 49 50

000
ASUS43 KDMX 290608
RWRIA

WEATHER ROUNDUP FOR IOWA
NATIONAL WEATHER SERVICE DES MOINES IA
100 AM CDT FRI APR 29 2016

NOTE: "FAIR" INDICATES FEW OR NO CLOUDS BELOW 12,000 FEET WITH NO
SIGNIFICANT WEATHER AND/OR OBSTRUCTIONS TO VISIBILITY.

* - THESE STATIONS ARE NOT NWS STATIONS...THUS NOT UNDER NWS
QUALITY CONTROL.  THEY ALSO DO NOT REPORT WEATHER SUCH
AS PRECIPITATION OR FOG.

IAZ001>003-012>014-020>022-031>034-043>046-290700-
   NORTHWEST IOWA

CITY           SKY/WX    TMP DP  RH WIND       PRES   REMARKS
CARROLL *      CLOUDY    43  41  93 N10       30.10R
CHEROKEE *     CLOUDY    40  40  99 N3        30.12R FOG
DENISON *      CLOUDY    43  41  93 N7        30.10R
LE MARS *      CLOUDY    41  39  93 N6        30.14S
ORANGE CITY *  CLOUDY    39  37  93 CALM      30.12S
SHELDON *      CLOUDY    39  39 100 NE3       30.11R
SIOUX CITY     CLOUDY    44  38  79 N5        30.14R
6HR MIN TEMP:  44; 6HR MAX TEMP:  45;

SPENCER        CLOUDY    40  36  86 NE6       30.12R
6HR MIN TEMP:  40; 6HR MAX TEMP:  42; 6HR PCP: TRACE;

STORM LAKE *   CLOUDY    41  39  93 NE7       30.11S
$$

IAZ055>058-069>071-079>083-090>094-290700-
   SOUTHWEST IOWA

CITY           SKY/WX    TMP DP  RH WIND       PRES   REMARKS
ATLANTIC *     CLOUDY    45  43  93 NW7       30.11R
AUDUBON *      DRIZZLE   45  41  87 N5        30.11S
CLARINDA *       N/A    N/A N/A N/A MISG        N/A
COUNCIL BLFS * CLOUDY    45  41  87 NW6       30.13R
CRESTON *      CLOUDY    46  43  87 NW8       30.11R
HARLAN  *      CLOUDY    45  43  93 NW6       30.15R FOG
LAMONI         CLOUDY    47  43  86 NW8       30.09R
6HR MIN TEMP:  47; 6HR MAX TEMP:  53;

RED OAK *      CLOUDY    46  41  81 NW7       30.12R
SHENANDOAH *   CLOUDY    46  43  87 N7        30.12S
$$

IAZ047>049-059>061-072>074-084-290700-
   CENTRAL IOWA

CITY           SKY/WX    TMP DP  RH WIND       PRES   REMARKS
AMES           CLOUDY    46  44  93 NW9       30.08R FOG
6HR MIN TEMP:  46; 6HR MAX TEMP:  50;

ANKENY *       CLOUDY    48  46  93 NW9       30.08R
BOONE *        CLOUDY    45  45 100 N10       30.08R FOG
CHARITON *     CLOUDY    48  45  87 NW8       30.07S
DES MOINES     DRIZZLE   48  44  86 NW9       30.08R
6HR MIN TEMP:  48; 6HR MAX TEMP:  51; 6HR PCP: TRACE;

GRINNELL*      CLOUDY    46  45  93 CALM      30.06S
KNOXVILLE *    CLOUDY    48  48 100 NW5       30.05S FOG
MARSHALLTOWN   CLOUDY    45  44  97 N7        30.07R FOG
6HR MIN TEMP:  45; 6HR MAX TEMP:  49; 6HR PCP:  0.03;

NEWTON *       CLOUDY    48  48 100 N6        30.06S
PELLA *        CLOUDY    49  47  96 N3        30.07S
$$

IAZ004>006-015-016-023>025-035-036-290700-
   NORTH CENTRAL IOWA

CITY           SKY/WX    TMP DP  RH WIND       PRES   REMARKS
ALGONA *       CLOUDY    41  39  93 N3        30.11R
CLARION *      CLOUDY    43  43 100 N8        30.09S FOG
ESTHERVILLE    CLOUDY    38  38 100 NE8       30.11R WCI  32
6HR MIN TEMP:  38; 6HR MAX TEMP:  40;

FORT DODGE *   CLOUDY    41  37  87 N5        30.10S
MASON CITY     CLOUDY    41  40  96 N7        30.11R
6HR MIN TEMP:  41; 6HR MAX TEMP:  44;

FOREST CITY *  CLOUDY    41  39  93 NE3       30.10R
WEBSTER CITY * MIX PCPN  43  43 100 N8        30.08R
IOWA FALLS *   CLOUDY    45  43  93 NE5       30.09S FOG
$$

IAZ007>011-017>019-026>030-037>042-050>054-066-290700-
   NORTHEAST IOWA

CITY           SKY/WX    TMP DP  RH WIND       PRES   REMARKS
CEDAR RAPIDS   CLOUDY    45  45 100 N8        30.05R FOG
6HR MIN TEMP:  45; 6HR MAX TEMP:  50;

CHARLES CITY * CLOUDY    41  41 100 NE5       30.09R
CLINTON *      CLOUDY    44  43  96 NE7       30.05R FOG
DECORAH *      CLOUDY    39  39 100 VRB5G12   30.07R
DUBUQUE        CLOUDY    40  39  97 NE7       30.06R FOG
6HR MIN TEMP:  40; 6HR MAX TEMP:  44;

MONTICELLO *   CLOUDY    43  41  93 N6        30.06R
OELWEIN *      CLOUDY    41  41 100 NE8       30.08R
WATERLOO       CLOUDY    43  40  89 N9        30.07S
6HR MIN TEMP:  43; 6HR MAX TEMP:  47;

$$

IAZ064-065-067-068-078-290700-
   EAST CENTRAL IOWA

CITY           SKY/WX    TMP DP  RH WIND       PRES   REMARKS
DAVENPORT      CLOUDY    46  44  93 NE9       30.04R FOG
6HR MIN TEMP:  46; 6HR MAX TEMP:  51; 6HR PCP: TRACE;

IOWA CITY      CLOUDY    47  46  97 NE6       30.06R
6HR MIN TEMP:  47; 6HR MAX TEMP:  55;

MT. PLEASANT * PTCLDY    53  49  87 CALM      30.03S
MUSCATINE *    CLOUDY    50  48  93 N8        30.04R FOG
QUAD CITIES    CLOUDY    51  48  89 NE7       30.02R FOG
6HR MIN TEMP:  51; 6HR MAX TEMP:  55; 6HR PCP: TRACE;

$$

IAZ062-063-075>077-085>089-095>099-290700-
   SOUTHEAST IOWA

CITY           SKY/WX    TMP DP  RH WIND       PRES   REMARKS
BURLINGTON     PTCLDY    51  48  89 W5        30.02R
6HR MIN TEMP:  51; 6HR MAX TEMP:  57;

FAIRFIELD *    CLOUDY    50  48  93 NW8       30.03S
FORT MADISON * CLEAR     50  46  87 NW6       30.03S
KEOKUK *       CLEAR     52  46  82 NW5       30.02S
OSKALOOSA *    CLOUDY    48  47  95 N10       30.05S FOG
OTTUMWA        LGT RAIN  50  49  96 N13       30.04R FOG
6HR MIN TEMP:  50; 6HR MAX TEMP:  54; 6HR PCP: TRACE;

WASHINGTON *   CLOUDY    50  50 100 N8        30.05S FOG
$$

ABBREVIATIONS USED IN REMARKS
   TC - TEMPERATURES IN CELSIUS
  WCI - WIND CHILL INDEX
   HX - HEAT INDEX
  VSB - VISIBILITY
$$





USA.gov is the U.S. government's official web portal to all federal, state and local government web resources and services.